Météo par heure à Alife

Ce jour, 13 Mai, Jeudi

Heure Température Précipitation Vent Pression Humidité
00:00 +12°C° 0 mm 2 m/s 738 mmHg 87%
01:00 +12°C° 0 mm 2 m/s 738 mmHg 87%
02:00 +13°C° 0.2 mm 2 m/s 737 mmHg 88%
03:00 +13°C° 0.2 mm 2 m/s 737 mmHg 89%
04:00 +13°C° 0.2 mm 1 m/s 736 mmHg 90%
05:00 +13°C° 0.1 mm 1 m/s 736 mmHg 88%
06:00 +14°C° 0.1 mm 1 m/s 736 mmHg 86%
07:00 +14°C° 0.1 mm 1 m/s 736 mmHg 84%
08:00 +15°C° 0.1 mm 2 m/s 736 mmHg 78%
09:00 +17°C° 0.1 mm 3 m/s 736 mmHg 73%
10:00 +18°C° 0.1 mm 4 m/s 736 mmHg 67%
11:00 +17°C° 0.2 mm 5 m/s 736 mmHg 65%
12:00 +19°C° 0.2 mm 5 m/s 736 mmHg 63%
13:00 +19°C° 0.2 mm 6 m/s 736 mmHg 61%
14:00 +19°C° 0.2 mm 6 m/s 736 mmHg 62%
15:00 +19°C° 0.2 mm 6 m/s 736 mmHg 64%
16:00 +17°C° 0.2 mm 5 m/s 736 mmHg 65%
17:00 +16°C° 0.1 mm 5 m/s 736 mmHg 70%
18:00 +15°C° 0.1 mm 4 m/s 736 mmHg 75%
19:00 +13°C° 0.1 mm 3 m/s 736 mmHg 80%
20:00 +12°C° 0 mm 3 m/s 737 mmHg 83%
21:00 +13°C° 0 mm 2 m/s 737 mmHg 85%
22:00 +12°C° 0 mm 2 m/s 737 mmHg 87%
23:00 +10°C° 0 mm 2 m/s 737 mmHg 86%

Demain, 14 Mai, Vendredi

Heure Température Précipitation Vent Pression Humidité
00:00 +10°C° 0 mm 2 m/s 737 mmHg 85%
01:00 +9°C° 0 mm 2 m/s 737 mmHg 85%
02:00 +9°C° 0 mm 2 m/s 737 mmHg 85%
03:00 +10°C° 0 mm 1 m/s 737 mmHg 86%
04:00 +10°C° 0 mm 1 m/s 737 mmHg 86%
05:00 +11°C° 0 mm 1 m/s 738 mmHg 82%
06:00 +13°C° 0 mm 1 m/s 738 mmHg 78%
07:00 +14°C° 0 mm 2 m/s 738 mmHg 74%
08:00 +15°C° 0 mm 2 m/s 738 mmHg 69%
09:00 +16°C° 0 mm 3 m/s 739 mmHg 64%
10:00 +17°C° 0 mm 3 m/s 739 mmHg 59%
11:00 +17°C° 0 mm 4 m/s 739 mmHg 60%
12:00 +17°C° 0 mm 4 m/s 739 mmHg 61%
13:00 +16°C° 0 mm 5 m/s 739 mmHg 62%
14:00 +16°C° 0.1 mm 5 m/s 739 mmHg 62%
15:00 +15°C° 0.1 mm 5 m/s 739 mmHg 62%
16:00 +15°C° 0.1 mm 4 m/s 738 mmHg 62%
17:00 +14°C° 0.1 mm 3 m/s 738 mmHg 68%
18:00 +12°C° 0.1 mm 3 m/s 738 mmHg 74%
19:00 +12°C° 0.1 mm 2 m/s 738 mmHg 80%
20:00 +12°C° 0.3 mm 1 m/s 737 mmHg 83%
21:00 +12°C° 0.3 mm 1 m/s 737 mmHg 86%
22:00 +12°C° 0.3 mm 1 m/s 737 mmHg 89%
23:00 +12°C° 1.2 mm 1 m/s 736 mmHg 92%

Après-demain, 15 Mai, Samedi

Heure Température Précipitation Vent Pression Humidité
00:00 +12°C° 1.2 mm 1 m/s 736 mmHg 94%
01:00 +12°C° 1.2 mm 1 m/s 735 mmHg 97%
02:00 +12°C° 1 mm 1 m/s 735 mmHg 96%
03:00 +12°C° 1 mm 1 m/s 735 mmHg 96%
04:00 +12°C° 1 mm 1 m/s 735 mmHg 96%
05:00 +12°C° 0.1 mm 1 m/s 736 mmHg 93%
06:00 +13°C° 0.1 mm 1 m/s 736 mmHg 91%
07:00 +14°C° 0.1 mm 1 m/s 736 mmHg 89%
08:00 +14°C° 0.1 mm 1 m/s 737 mmHg 86%
09:00 +15°C° 0.1 mm 1 m/s 737 mmHg 83%
10:00 +15°C° 0.1 mm 2 m/s 737 mmHg 80%
11:00 +16°C° 0.1 mm 2 m/s 737 mmHg 76%
12:00 +17°C° 0.1 mm 2 m/s 737 mmHg 72%
13:00 +18°C° 0.1 mm 2 m/s 737 mmHg 68%
14:00 +18°C° 0.2 mm 2 m/s 737 mmHg 69%
15:00 +18°C° 0.2 mm 2 m/s 738 mmHg 71%
16:00 +18°C° 0.2 mm 2 m/s 738 mmHg 72%
17:00 +17°C° 0.1 mm 2 m/s 738 mmHg 77%
18:00 +16°C° 0.1 mm 2 m/s 738 mmHg 83%
19:00 +15°C° 0.1 mm 2 m/s 738 mmHg 88%
20:00 +14°C° 0 mm 2 m/s 738 mmHg 89%
21:00 +14°C° 0 mm 2 m/s 739 mmHg 90%
22:00 +13°C° 0 mm 1 m/s 739 mmHg 92%
23:00 +13°C° 0 mm 1 m/s 739 mmHg 92%

16 Mai, Dimanche

Heure Température Précipitation Vent Pression Humidité
00:00 +12°C° 0 mm 1 m/s 739 mmHg 92%
01:00 +12°C° 0 mm 1 m/s 739 mmHg 92%
02:00 +12°C° 0 mm 1 m/s 738 mmHg 93%
03:00 +12°C° 0 mm 1 m/s 738 mmHg 93%
04:00 +12°C° 0 mm 1 m/s 738 mmHg 94%
05:00 +13°C° 0 mm 1 m/s 738 mmHg 91%
06:00 +14°C° 0 mm 1 m/s 738 mmHg 88%
07:00 +15°C° 0 mm 2 m/s 738 mmHg 85%
08:00 +17°C° 0 mm 2 m/s 738 mmHg 78%
09:00 +18°C° 0 mm 3 m/s 738 mmHg 71%
10:00 +20°C° 0 mm 4 m/s 738 mmHg 65%
11:00 +20°C° 0 mm 4 m/s 738 mmHg 65%
12:00 +20°C° 0 mm 4 m/s 738 mmHg 66%
13:00 +20°C° 0 mm 4 m/s 738 mmHg 66%
14:00 +20°C° 0 mm 4 m/s 738 mmHg 64%
15:00 +20°C° 0 mm 4 m/s 738 mmHg 62%
16:00 +21°C° 0 mm 4 m/s 738 mmHg 60%
17:00 +19°C° 0 mm 4 m/s 737 mmHg 66%
18:00 +18°C° 0 mm 3 m/s 737 mmHg 72%
19:00 +16°C° 0 mm 2 m/s 737 mmHg 78%
20:00 +16°C° 0 mm 2 m/s 737 mmHg 81%
21:00 +15°C° 0 mm 2 m/s 737 mmHg 84%
22:00 +14°C° 0 mm 2 m/s 737 mmHg 87%
23:00 +14°C° 0 mm 2 m/s 737 mmHg 87%

17 Mai, Lundi

Heure Température Précipitation Vent Pression Humidité
00:00 +15°C° 0 mm 2 m/s 737 mmHg 88%
01:00 +15°C° 0 mm 2 m/s 737 mmHg 89%
02:00 +15°C° 0 mm 2 m/s 737 mmHg 89%
03:00 +15°C° 0 mm 1 m/s 737 mmHg 90%
04:00 +15°C° 0 mm 1 m/s 736 mmHg 90%
05:00 +16°C° 0 mm 1 m/s 737 mmHg 88%
06:00 +17°C° 0 mm 2 m/s 737 mmHg 86%
07:00 +17°C° 0 mm 2 m/s 737 mmHg 84%
08:00 +19°C° 0 mm 2 m/s 737 mmHg 80%
09:00 +20°C° 0 mm 3 m/s 737 mmHg 75%
10:00 +21°C° 0 mm 3 m/s 737 mmHg 70%
11:00 +22°C° 0 mm 4 m/s 737 mmHg 68%
12:00 +22°C° 0 mm 4 m/s 737 mmHg 65%
13:00 +23°C° 0 mm 5 m/s 736 mmHg 63%
14:00 +22°C° 0 mm 5 m/s 736 mmHg 62%
15:00 +22°C° 0 mm 5 m/s 736 mmHg 61%
16:00 +22°C° 0 mm 5 m/s 735 mmHg 60%
17:00 +20°C° 0 mm 5 m/s 735 mmHg 67%
18:00 +19°C° 0 mm 4 m/s 735 mmHg 74%
19:00 +17°C° 0 mm 4 m/s 735 mmHg 81%
20:00 +15°C° 0 mm 4 m/s 736 mmHg 83%
21:00 +14°C° 0 mm 3 m/s 736 mmHg 86%
22:00 +14°C° 0 mm 3 m/s 736 mmHg 88%
23:00 +13°C° 0 mm 3 m/s 737 mmHg 88%

18 Mai, Mardi

Heure Température Précipitation Vent Pression Humidité
00:00 +13°C° 0 mm 2 m/s 737 mmHg 87%
01:00 +12°C° 0 mm 2 m/s 737 mmHg 87%
02:00 +12°C° 0 mm 2 m/s 737 mmHg 88%
03:00 +12°C° 0 mm 1 m/s 738 mmHg 89%
04:00 +11°C° 0 mm 1 m/s 738 mmHg 90%
05:00 +13°C° 0 mm 1 m/s 738 mmHg 86%
06:00 +14°C° 0 mm 1 m/s 739 mmHg 83%
07:00 +15°C° 0 mm 2 m/s 739 mmHg 79%
08:00 +16°C° 0 mm 2 m/s 739 mmHg 73%
09:00 +17°C° 0 mm 3 m/s 739 mmHg 67%
10:00 +19°C° 0 mm 3 m/s 739 mmHg 61%
11:00 +18°C° 0.3 mm 3 m/s 739 mmHg 64%
12:00 +18°C° 0.3 mm 3 m/s 739 mmHg 67%
13:00 +18°C° 0.3 mm 3 m/s 739 mmHg 69%
14:00 +18°C° 0.4 mm 3 m/s 739 mmHg 69%
15:00 +18°C° 0.4 mm 2 m/s 739 mmHg 69%
16:00 +18°C° 0.4 mm 2 m/s 739 mmHg 68%
17:00 +17°C° 0.7 mm 2 m/s 739 mmHg 72%
18:00 +16°C° 0.7 mm 1 m/s 740 mmHg 76%
19:00 +15°C° 0.7 mm 1 m/s 740 mmHg 80%
20:00 +14°C° 0 mm 1 m/s 741 mmHg 82%
21:00 +13°C° 0 mm 1 m/s 741 mmHg 84%
22:00 +13°C° 0 mm 1 m/s 742 mmHg 86%
23:00 +12°C° 0 mm 1 m/s 742 mmHg 86%
Voir plus

Nous avons besoin de votre consentement

Meteoprog et ses fournisseurs de services peuvent stocker et accéder à des données personnelles telles que des cookies, des identifiants d'appareils ou d'autres technologies similaires sur votre appareil et traiter ces données pour personnaliser le contenu et les publicités, ainsi que pour fournir des fonctionnalités de médias sociaux et analyser le trafic.

  • Stocker et/ou accéder à des informations sur votre appareil

    Des cookies, des identifiants d'appareils ou d'autres informations peuvent être stockés ou accessibles sur votre appareil aux fins indiquées ci-dessus.

  • Annonces et contenus personnalisés, mesure des annonces et des contenus, connaissance de l'audience et développement de produits

    Les annonces et le contenu peuvent être personnalisés en fonction d'un profil. D'autres données peuvent être ajoutées pour mieux personnaliser les annonces et le contenu. Les performances des publicités et du contenu peuvent être mesurées. Il est possible d'obtenir des informations sur le public qui a vu les publicités et le contenu. Ces données peuvent être utilisées pour développer ou améliorer l'expérience de l'utilisateur, les systèmes et les logiciels.

En cliquant sur "J'accepte", vous autorisez l'utilisation de cookies, des identifiants d'appareils, des balises web ou d'autres technologies similaires. Vos paramètres peuvent être modifiés dans le navigateur de votre appareil.

Dans certains cas, des intérêts légitimes peuvent être invoqués plutôt qu'un consentement. Vous pouvez en savoir plus à ce sujet dans notre Politique de confidentialité et de cookies.